Date,TemperatureHighF,TemperatureAvgF,TemperatureLowF,DewpointHighF,DewpointAvgF,DewpointLowF,HumidityHigh,HumidityAvg,HumidityLow,PressureMaxIn,PressureMinIn,WindSpeedMaxMPH,WindSpeedAvgMPH,GustSpeedMaxMPH,PrecipitationSumIn
2013-2-1,24.6,17.9,11.6,21.7,11.3,5.7,89,75,66,30.39,29.83,7,3,14,0.00
2013-2-2,25.2,17.9,6.2,22.7,14.1,3.4,92,85,75,30.38,30.02,5,1,12,0.00
2013-2-3,28.7,24.0,19.4,25.6,21.2,15.1,93,89,79,30.07,29.85,6,1,9,0.07
2013-2-4,28.8,23.6,18.2,25.8,19.5,13.3,93,84,70,30.12,29.89,3,1,9,0.02
2013-2-5,33.1,30.0,27.6,31.5,28.2,25.8,94,93,90,29.97,29.84,1,0,5,0.00
2013-2-6,32.7,27.7,14.1,28.5,23.9,11.7,94,86,69,30.36,29.97,5,1,10,0.02
2013-2-7,43.3,28.6,12.5,32.3,23.3,10.1,93,81,64,30.35,30.01,4,1,8,0.06
2013-2-8,40.7,32.3,27.7,37.2,29.5,23.6,95,89,80,30.16,29.81,9,2,21,0.13
2013-2-9,34.3,26.3,17.1,24.0,20.1,14.7,90,78,58,30.42,30.16,11,3,14,0.01
2013-2-10,52.9,34.2,13.7,32.1,21.4,11.6,100,64,33,30.40,29.99,3,1,7,0.01
2013-2-11,62.8,47.8,38.9,50.2,38.0,28.5,97,72,36,30.00,29.64,8,3,15,0.07
2013-2-12,42.9,36.8,25.6,30.7,28.1,22.8,89,71,60,30.07,29.91,7,2,12,0.00
2013-2-13,40.8,30.6,21.3,33.8,27.2,19.3,100,87,68,29.94,29.69,3,0,5,0.03
2013-2-14,42.4,35.2,28.5,35.8,31.4,26.3,95,86,74,29.98,29.88,5,1,8,0.17
2013-2-15,40.5,35.4,29.3,35.9,31.2,26.4,94,85,69,30.07,29.92,5,1,9,0.00
2013-2-16,31.3,27.8,24.8,27.0,21.9,17.7,92,79,62,30.06,29.96,4,0,5,0.09
2013-2-17,22.9,20.3,14.6,17.9,11.7,6.7,82,69,63,30.31,30.11,8,4,13,0.01
2013-2-18,43.4,21.0,2.2,29.9,14.2,-0.8,91,77,48,30.37,29.94,4,0,6,0.02
2013-2-19,44.4,36.2,27.7,40.4,32.5,25.2,92,86,78,29.94,29.69,7,3,12,0.18
2013-2-20,24.1,22.3,20.5,17.5,15.9,13.7,85,76,66,30.23,30.07,5,2,11,0.18
2013-2-21,26.5,22.7,18.7,20.2,17.2,15.2,88,79,69,30.39,30.20,7,2,11,0.00
2013-2-22,39.5,32.6,22.5,35.7,27.5,17.0,93,82,62,30.32,30.01,7,2,13,0.02
2013-2-23,46.2,36.3,29.1,40.2,33.1,27.3,94,88,77,30.03,29.86,4,0,7,0.00
2013-2-24,32.9,29.6,25.0,28.5,25.7,23.5,95,86,73,30.17,29.87,5,1,10,0.00
2013-2-25,42.5,35.9,26.4,29.0,26.2,22.8,86,69,54,30.21,30.07,4,1,9,0.00
2013-2-26,41.5,35.7,24.5,37.5,30.2,21.6,94,81,58,30.10,29.59,8,2,12,0.63
2013-2-27,43.6,39.8,35.0,40.4,37.3,32.9,96,91,81,29.68,29.56,4,1,8,0.26
2013-2-28,35.1,34.1,33.5,33.6,32.0,30.4,96,92,87,29.81,29.63,4,0,6,0.11